Location: Fort Worth, Tx
(32.7431°N, 97.3695°W)
Time: 09:58:58
(UTC-04:00)

A-11 Canister half - Pass Details

Date: 21 August 2024
Orbit: 1524 x 1684 km, 47.3° (Epoch: 13 September)

Event Time Altitude Azimuth Distance (km) Brightness Sun altitude
Rises 23:54:41 0° 259° (WSW) 4,856 12.1 -31.5°
Reaches altitude 10° 23:57:58 10° 265° (W) 3,890 11.5 -32.0°
Maximum altitude 00:07:32 48° 337° (NNW) 2,097 9.9 -33.5°
Drops below altitude 10° 00:17:17 10° 50° (NE) 3,950 11.1 -34.9°
Sets 00:20:41 0° 56° (ENE) 4,936 11.6 -35.3°
